| time (UTC) | temp F | wind direction | speed MPH | gust MPH | rain 1hr in | rain 24hr in | rain mn in | humidity % | barometer mb |
| 20260507121601 | 42 | 17 | 5.0 | 11.0 | 0.00 | 0.01 | 0.00 | 74 | 1016.2 |
| 20260507120057 | 42 | 360 | 3.0 | 8.0 | 0.00 | 0.01 | 0.00 | 77 | 1016.2 |
| 20260507114559 | 41 | 360 | 3.0 | 8.0 | 0.00 | 0.01 | 0.00 | 79 | 1016.2 |
| 20260507113057 | 40 | 360 | 2.0 | 5.0 | 0.00 | 0.01 | 0.00 | 80 | 1016.3 |
| 20260507111555 | 39 | 360 | 2.0 | 5.0 | 0.00 | 0.01 | 0.00 | 80 | 1016.1 |
| 20260507110107 | 39 | 0 | 2.0 | 5.0 | 0.00 | 0.01 | 0.00 | 80 | 1016.2 |
| 20260507104634 | 39 | 360 | 1.0 | 4.0 | 0.00 | 0.01 | 0.00 | 80 | 1016.0 |
| 20260507103057 | 39 | 0 | 2.0 | 9.0 | 0.00 | 0.01 | 0.00 | 80 | 1015.6 |
| 20260507101558 | 40 | 360 | 2.0 | 6.0 | 0.00 | 0.01 | 0.00 | 80 | 1015.6 |
| 20260507100056 | 40 | 360 | 2.0 | 6.0 | 0.00 | 0.01 | 0.00 | 81 | 1015.7 |
| 20260507094610 | 40 | 0 | 0.0 | 5.0 | 0.00 | 0.01 | 0.00 | 81 | 1015.7 |
| 20260507093101 | 40 | 360 | 0.0 | 5.0 | 0.00 | 0.01 | 0.00 | 81 | 1015.5 |
| 20260507091635 | 40 | 0 | 1.0 | 4.0 | 0.00 | 0.01 | 0.00 | 82 | 1015.4 |
| 20260507090106 | 40 | 360 | 1.0 | 4.0 | 0.00 | 0.01 | 0.00 | 83 | 1015.5 |
| 20260507084558 | 40 | 0 | 0.0 | 3.0 | 0.00 | 0.02 | 0.00 | 83 | 1015.3 |
| 20260507083056 | 40 | 0 | 0.0 | 5.0 | 0.00 | 0.02 | 0.00 | 83 | 1015.3 |
| 20260507081557 | 40 | 0 | 0.0 | 5.0 | 0.00 | 0.02 | 0.00 | 83 | 1015.4 |
| 20260507074559 | 40 | 360 | 1.0 | 3.0 | 0.00 | 0.06 | 0.00 | 82 | 1015.5 |
| 20260507073102 | 39 | 360 | 1.0 | 4.0 | 0.00 | 0.06 | 0.00 | 82 | 1015.4 |
| 20260507071600 | 39 | 360 | 1.0 | 4.0 | 0.00 | 0.06 | 0.00 | 81 | 1015.4 |
| 20260507070107 | 39 | 0 | 0.0 | 4.0 | 0.00 | 0.06 | 0.00 | 80 | 1015.4 |
| 20260507064600 | 40 | 0 | 0.0 | 3.0 | 0.00 | 0.11 | 0.00 | 80 | 1015.6 |
| 20260507063100 | 40 | 360 | 0.0 | 3.0 | 0.00 | 0.11 | 0.00 | 79 | 1015.7 |
| 20260507061558 | 40 | 0 | 0.0 | 0.0 | 0.00 | 0.11 | 0.00 | 79 | 1015.6 |
| 20260507060104 | 40 | 0 | 0.0 | 0.0 | 0.00 | 0.11 | 0.00 | 78 | 1015.8 |
| 20260507054600 | 41 | 0 | 0.0 | 0.0 | 0.00 | 0.25 | 0.00 | 78 | 1015.7 |
| 20260507053055 | 41 | 0 | 0.0 | 0.0 | 0.00 | 0.25 | 0.00 | 78 | 1015.9 |
| 20260507051557 | 41 | 0 | 0.0 | 1.0 | 0.00 | 0.25 | 0.00 | 77 | 1016.1 |
| 20260507050054 | 42 | 0 | 0.0 | 2.0 | 0.00 | 0.25 | 0.00 | 76 | 1016.1 |
| 20260507044555 | 42 | 0 | 0.0 | 0.0 | 0.00 | 0.34 | 0.00 | 75 | 1015.9 |
| 20260507043059 | 42 | 0 | 0.0 | 0.0 | 0.00 | 0.34 | 0.00 | 75 | 1015.8 |
| 20260507041558 | 43 | 0 | 0.0 | 0.0 | 0.00 | 0.34 | 0.00 | 75 | 1015.8 |
| 20260507040103 | 43 | 0 | 0.0 | 0.0 | 0.00 | 0.34 | 0.00 | 74 | 1015.7 |
| 20260507034600 | 44 | 0 | 0.0 | 0.0 | 0.00 | 0.35 | 0.34 | 74 | 1015.6 |
| 20260507033055 | 44 | 0 | 0.0 | 0.0 | 0.00 | 0.35 | 0.34 | 72 | 1015.6 |
| 20260507031555 | 45 | 0 | 0.0 | 0.0 | 0.00 | 0.35 | 0.34 | 72 | 1015.7 |
| 20260507030055 | 45 | 0 | 0.0 | 0.0 | 0.00 | 0.35 | 0.34 | 70 | 1015.7 |
| 20260507024559 | 46 | 0 | 0.0 | 0.0 | 0.00 | 0.45 | 0.34 | 69 | 1015.9 |
| 20260507023055 | 47 | 0 | 0.0 | 0.0 | 0.00 | 0.45 | 0.34 | 68 | 1015.8 |
| 20260507021600 | 48 | 0 | 0.0 | 0.0 | 0.00 | 0.45 | 0.34 | 66 | 1016.0 |
| 20260507020058 | 49 | 0 | 0.0 | 0.0 | 0.00 | 0.45 | 0.34 | 64 | 1015.8 |
| 20260507014558 | 50 | 0 | 0.0 | 0.0 | 0.00 | 0.52 | 0.34 | 63 | 1015.4 |
| 20260507013053 | 51 | 0 | 0.0 | 0.0 | 0.00 | 0.52 | 0.34 | 62 | 1015.4 |
| 20260507011601 | 52 | 0 | 0.0 | 0.0 | 0.00 | 0.52 | 0.34 | 61 | 1015.4 |
| 20260507010113 | 52 | 0 | 0.0 | 2.0 | 0.00 | 0.52 | 0.34 | 61 | 1015.4 |
| 20260507004557 | 53 | 360 | 1.0 | 6.0 | 0.00 | 0.71 | 0.34 | 60 | 1015.2 |
| 20260507003055 | 53 | 360 | 0.0 | 5.0 | 0.00 | 0.71 | 0.34 | 59 | 1014.9 |
| 20260507001601 | 54 | 360 | 2.0 | 6.0 | 0.00 | 0.71 | 0.34 | 58 | 1014.7 |
| 20260507000104 | 54 | 360 | 2.0 | 5.0 | 0.00 | 0.71 | 0.34 | 57 | 1014.7 |
| 20260506234611 | 55 | 360 | 2.0 | 6.0 | 0.00 | 0.83 | 0.34 | 56 | 1014.6 |
| 20260506233103 | 55 | 360 | 1.0 | 8.0 | 0.00 | 0.83 | 0.34 | 56 | 1014.7 |
| 20260506231554 | 55 | 360 | 3.0 | 8.0 | 0.00 | 0.83 | 0.34 | 54 | 1014.6 |
| 20260506230056 | 55 | 360 | 3.0 | 9.0 | 0.00 | 0.83 | 0.34 | 53 | 1014.7 |
| 20260506224557 | 56 | 360 | 4.0 | 10.0 | 0.00 | 0.99 | 0.34 | 54 | 1015.0 |
| 20260506223100 | 56 | 360 | 2.0 | 9.0 | 0.00 | 0.99 | 0.34 | 54 | 1015.0 |
| 20260506221557 | 56 | 360 | 2.0 | 7.0 | 0.00 | 0.99 | 0.34 | 56 | 1015.2 |
| 20260506220057 | 56 | 360 | 2.0 | 10.0 | 0.00 | 0.99 | 0.34 | 57 | 1015.1 |
| 20260506214601 | 56 | 360 | 1.0 | 6.0 | 0.00 | 0.99 | 0.34 | 58 | 1014.8 |
| 20260506213057 | 56 | 360 | 4.0 | 8.0 | 0.00 | 0.99 | 0.34 | 58 | 1014.8 |
| 20260506211556 | 56 | 360 | 4.0 | 8.0 | 0.00 | 0.99 | 0.34 | 56 | 1014.6 |
| 20260506210056 | 56 | 360 | 3.0 | 6.0 | 0.00 | 0.99 | 0.34 | 54 | 1014.7 |
| 20260506204608 | 56 | 360 | 3.0 | 8.0 | 0.00 | 1.08 | 0.34 | 55 | 1014.6 |
| 20260506203055 | 56 | 360 | 1.0 | 6.0 | 0.00 | 1.08 | 0.34 | 55 | 1014.5 |
| 20260506201554 | 56 | 360 | 3.0 | 9.0 | 0.00 | 1.08 | 0.34 | 56 | 1014.5 |
| 20260506200057 | 56 | 360 | 4.0 | 11.0 | 0.00 | 1.08 | 0.34 | 55 | 1014.3 |
| 20260506194554 | 57 | 360 | 3.0 | 10.0 | 0.00 | 1.14 | 0.34 | 56 | 1014.2 |
| 20260506193057 | 57 | 360 | 4.0 | 11.0 | 0.00 | 1.14 | 0.34 | 56 | 1014.3 |
| 20260506191558 | 57 | 360 | 4.0 | 9.0 | 0.00 | 1.14 | 0.34 | 54 | 1014.5 |
| 20260506190054 | 57 | 360 | 4.0 | 13.0 | 0.00 | 1.14 | 0.34 | 53 | 1014.5 |
| 20260506184554 | 59 | 360 | 5.0 | 13.0 | 0.00 | 1.14 | 0.34 | 53 | 1014.5 |
| 20260506183057 | 59 | 360 | 5.0 | 11.0 | 0.00 | 1.14 | 0.34 | 52 | 1014.0 |
| 20260506181557 | 58 | 360 | 3.0 | 10.0 | 0.00 | 1.14 | 0.34 | 58 | 1014.2 |
| 20260506180054 | 58 | 360 | 6.0 | 11.0 | 0.00 | 1.14 | 0.34 | 54 | 1014.4 |
| 20260506174606 | 59 | 360 | 4.0 | 11.0 | 0.00 | 1.15 | 0.34 | 56 | 1014.5 |
| 20260506173125 | 59 | 360 | 3.0 | 9.0 | 0.00 | 1.15 | 0.34 | 57 | 1014.5 |
| 20260506171600 | 58 | 360 | 2.0 | 10.0 | 0.00 | 1.15 | 0.34 | 56 | 1014.5 |
| 20260506170057 | 59 | 360 | 4.0 | 11.0 | 0.00 | 1.15 | 0.34 | 55 | 1014.5 |
| 20260506164559 | 59 | 360 | 5.0 | 11.0 | 0.00 | 1.15 | 0.34 | 56 | 1014.2 |
| 20260506163100 | 59 | 360 | 3.0 | 11.0 | 0.00 | 1.15 | 0.34 | 58 | 1014.3 |
| 20260506161609 | 59 | 360 | 3.0 | 8.0 | 0.00 | 1.15 | 0.34 | 63 | 1014.6 |
| 20260506160111 | 57 | 360 | 2.0 | 6.0 | 0.00 | 1.15 | 0.34 | 64 | 1014.3 |
| 20260506154600 | 55 | 360 | 5.0 | 10.0 | 0.01 | 1.15 | 0.34 | 63 | 1014.3 |
| 20260506153056 | 55 | 360 | 4.0 | 11.0 | 0.01 | 1.15 | 0.34 | 66 | 1014.4 |
| 20260506151555 | 54 | 360 | 5.0 | 10.0 | 0.01 | 1.15 | 0.34 | 66 | 1013.9 |
| 20260506144611 | 52 | 360 | 4.0 | 12.0 | 0.00 | 1.14 | 0.33 | 73 | 1013.4 |
| 20260506143058 | 50 | 360 | 5.0 | 11.0 | 0.00 | 1.14 | 0.33 | 80 | 1013.5 |
| 20260506141605 | 48 | 360 | 5.0 | 9.0 | 0.00 | 1.14 | 0.33 | 87 | 1013.7 |
| 20260506140122 | 47 | 360 | 3.0 | 9.0 | 0.00 | 1.14 | 0.33 | 90 | 1013.6 |
| 20260506134601 | 46 | 360 | 3.0 | 9.0 | 0.00 | 1.14 | 0.33 | 91 | 1013.3 |
| 20260506133135 | 45 | 360 | 1.0 | 8.0 | 0.00 | 1.14 | 0.33 | 92 | 1012.9 |
| 20260506131603 | 45 | 33 | 4.0 | 11.0 | 0.00 | 1.14 | 0.33 | 93 | 1012.9 |
| 20260506130139 | 44 | 26 | 2.0 | 8.0 | 0.00 | 1.14 | 0.33 | 93 | 1012.8 |
| 20260506124604 | 44 | 306 | 2.0 | 8.0 | 0.00 | 1.14 | 0.33 | 93 | 1012.8 |
| 20260506123055 | 43 | 9 | 3.0 | 8.0 | 0.00 | 1.14 | 0.33 | 93 | 1012.6 |